GFSGBSN_prec_cthk_336.txt.gz
RH
4 5 6 7 8 9 11 14 15 15 16 16 16 15 15 14 14 13 12 10 8 7 7 8 8 8 8 5 6 6 5 5 6 6 6 6 7 8 8 8 8 9 9 10 12 14 15
13 13 14 14 15 16 17 17 17 17 17 16 15 14 13 12 10 8 7 7 6 6 7 7 9 8 8 7 7 7 7 6 7 7 7 7 8 9 9 8 9 8 8 8 9 12 12
20 20 19 19 19 18 17 16 16 16 16 15 14 12 10 6 6 6 6 6 6 6 7 8 10 11 11 9 9 9 9 8 9 9 9 9 9 10 10 9 9 10 11 9 11 11 10
19 18 19 19 18 17 16 15 15 15 14 13 10 7 5 5 5 6 7 7 8 10 11 11 12 13 11 11 11 10 10 10 11 11 10 11 11 13 15 14 14 15 15 14 15 13 10
17 15 15 16 15 15 13 12 12 12 10 7 6 5 5 5 6 8 11 11 11 11 12 13 14 17 14 14 14 15 14 13 11 11 11 11 12 14 18 18 19 18 18 17 16 15 12
17 15 15 15 14 12 10 9 8 7 6 6 6 6 6 7 7 9 14 17 14 14 16 15 16 17 16 16 17 15 13 12 12 11 11 10 11 14 15 17 22 22 22 20 18 17 15
19 17 16 14 13 10 9 8 7 7 6 6 7 7 8 9 10 11 15 21 20 18 18 18 19 17 18 18 16 15 13 13 12 12 12 11 12 15 14 14 16 20 21 23 24 25 22
21 18 16 13 12 10 9 8 8 8 8 8 9 9 10 13 15 17 19 21 25 23 21 23 20 19 19 17 15 14 13 12 13 13 13 13 16 17 18 19 20 23 25 27 26 26 28
23 19 16 13 12 12 11 10 10 10 10 11 12 12 14 18 19 22 21 23 24 26 27 25 20 19 17 15 15 14 13 12 14 14 14 18 19 18 20 23 24 29 30 31 32 26 25
25 21 18 14 13 14 14 14 13 12 13 14 15 16 17 20 22 24 25 22 25 31 31 22 19 18 15 15 16 15 14 15 16 17 17 17 15 14 17 21 29 32 31 30 29 31 33
27 23 19 16 15 16 17 16 16 16 16 17 18 19 20 21 22 24 23 26 27 40 44 21 19 17 17 16 17 16 16 16 18 19 18 20 16 15 17 19 26 29 32 38 38 35 40
29 25 22 19 18 18 19 20 19 18 18 20 20 22 24 26 29 29 27 30 34 38 33 22 18 18 19 19 18 17 18 17 18 19 20 21 22 24 25 23 22 35 35 43 57 58 59
30 29 26 23 21 21 21 22 21 21 21 22 23 25 27 29 32 33 32 33 30 40 23 21 19 21 21 21 19 20 21 20 23 25 25 23 23 24 23 29 38 58 59 69 52 64 64
25 26 28 28 26 24 23 23 24 23 24 26 27 27 30 31 32 31 28 28 37 25 22 19 22 22 24 23 21 23 24 26 25 26 31 33 29 29 34 38 80 81 95 94 91 66 84
23 25 25 27 31 30 29 29 28 28 29 30 32 32 31 32 30 28 25 36 32 24 21 23 24 25 27 23 23 26 27 29 31 32 37 37 30 25 34 46 73 73 76 80 90 77 85
22 23 25 27 30 30 30 32 32 32 33 34 35 34 32 31 28 24 26 31 26 22 23 26 28 26 29 26 28 30 32 34 35 33 26 28 36 30 36 54 65 79 78 80 95 94 96
22 22 24 29 33 31 31 30 33 34 35 35 35 34 31 29 25 23 35 28 26 25 24 27 28 27 27 27 29 34 33 34 32 29 23 26 37 35 44 60 70 62 80 93 94 89 96
23 27 33 35 33 33 30 28 31 36 36 35 33 35 30 27 26 28 31 26 26 27 24 27 27 27 27 28 31 33 34 31 30 27 26 26 35 42 45 68 62 66 74 73 75 74 85
28 33 36 36 34 31 28 27 36 37 36 36 33 32 29 27 33 35 30 28 27 27 26 26 29 27 26 28 31 30 32 31 31 26 29 29 40 48 51 59 63 54 58 61 58 65 78
29 34 36 36 33 31 28 31 38 37 35 35 34 37 30 29 30 31 30 30 30 28 28 28 29 28 26 29 30 31 32 31 32 26 26 28 42 62 79 92 81 76 57 51 58 71 79
29 33 34 38 34 31 31 36 39 36 34 34 33 34 33 38 34 31 29 30 30 30 29 27 29 28 30 32 30 30 28 34 33 29 26 27 41 61 69 81 83 89 77 67 66 70 74
28 32 31 37 37 33 34 38 40 36 33 33 34 35 33 34 34 32 31 33 33 30 29 29 30 30 29 31 29 33 34 39 36 34 31 34 37 56 72 96 90 82 80 78 72 76 73
28 28 28 36 39 38 37 39 41 36 32 33 36 36 32 33 32 32 31 33 33 29 32 30 31 31 29 27 27 32 34 37 37 43 39 36 46 46 59 85 83 77 81 84 82 83 83
28 25 28 37 41 42 40 40 42 37 32 33 35 35 32 36 32 31 32 33 35 33 31 32 34 34 31 29 28 31 32 34 39 38 36 39 48 51 60 83 91 68 70 74 79 79 76
32 29 32 39 44 44 43 41 41 38 34 32 33 36 34 38 34 34 35 35 33 33 33 34 35 35 35 30 33 36 39 33 33 32 34 40 51 59 75 76 75 73 69 71 71 84 73
38 34 35 42 47 47 45 42 41 38 36 34 32 34 35 34 38 36 37 36 35 33 35 37 38 37 35 33 40 47 50 35 36 36 34 40 47 56 62 75 88 70 63 64 64 85 68
40 39 39 46 49 49 46 43 42 40 38 37 34 33 35 37 37 35 37 37 34 33 38 37 34 39 35 39 49 53 47 37 43 37 41 44 43 54 60 73 71 61 60 60 69 66 67
42 42 45 49 52 50 48 45 45 43 41 41 40 37 36 38 39 38 36 36 36 34 38 34 40 40 39 45 51 53 52 48 46 38 40 47 58 65 62 73 68 57 66 71 68 65 66
45 47 51 53 54 51 49 48 47 46 43 44 43 40 38 38 41 40 39 41 41 33 31 36 39 41 42 46 47 46 52 48 46 48 38 49 53 68 65 67 69 74 75 76 68 69 65

GFSGBSN_prec_cthk_339.txt.gz
RH
9 9 10 10 11 12 14 15 15 15 16 15 14 14 13 13 13 12 9 7 7 6 7 8 8 8 7 6 7 7 7 6 6 7 8 8 8 9 10 9 9 9 10 11 11 11 11
18 18 18 18 17 17 17 16 16 16 16 15 14 13 11 9 7 6 6 6 6 7 7 8 9 10 8 8 9 9 8 8 8 8 10 10 10 10 11 10 10 9 10 10 10 9 9
18 18 18 18 17 16 15 14 14 15 14 13 11 9 5 5 6 6 6 7 7 8 9 10 11 12 10 11 11 11 10 10 11 11 11 11 11 12 13 14 11 12 13 13 11 9 9
15 15 15 15 14 13 12 12 13 12 11 9 6 5 5 5 6 7 8 9 11 12 12 13 15 14 14 15 15 14 14 13 12 11 11 11 12 14 14 15 16 16 15 15 13 12 11
15 15 14 14 13 11 10 9 9 8 6 5 5 5 6 6 8 10 11 12 13 14 14 15 17 17 18 17 15 15 14 12 11 11 10 11 12 12 12 12 15 16 18 19 17 16 16
16 15 13 13 11 9 8 8 7 6 6 6 6 7 8 9 10 14 17 15 16 16 17 17 18 17 19 17 17 14 11 11 10 9 9 9 11 13 14 15 17 16 16 16 18 19 21
17 16 13 12 10 9 8 8 7 7 8 8 9 9 10 12 12 14 17 21 20 19 19 21 20 21 19 16 13 12 10 10 9 9 11 11 13 18 19 20 21 21 21 22 21 20 21
19 16 13 12 12 11 10 9 9 9 10 11 12 12 14 16 17 18 19 23 24 25 23 23 22 20 16 13 13 12 10 10 10 12 12 14 16 17 17 17 20 22 25 26 23 23 25
21 17 14 13 14 13 13 12 11 11 12 13 14 16 18 20 20 23 22 23 25 28 26 22 19 16 14 14 15 14 12 12 13 14 15 17 16 15 15 15 16 16 17 23 29 27 27
23 20 16 15 15 16 16 15 14 15 15 16 17 18 20 22 23 25 24 23 26 30 27 21 16 16 15 15 16 16 14 14 14 15 15 15 15 16 16 20 20 20 18 28 31 34 41
25 22 20 18 17 18 19 18 17 18 18 19 20 21 23 25 27 25 25 24 27 39 35 19 17 18 17 16 17 17 15 15 17 16 16 18 18 19 20 22 20 23 37 46 40 36 35
27 26 24 22 20 20 21 21 20 19 20 22 23 25 27 28 30 29 27 26 28 31 29 20 18 19 18 18 17 18 17 15 17 18 18 20 20 21 23 19 22 39 59 62 57 55 56
23 24 26 27 26 24 23 23 23 23 22 25 27 28 28 29 29 30 28 31 26 36 20 21 20 20 20 18 18 19 20 20 23 25 22 21 24 21 20 24 26 46 59 77 74 73 84
23 25 24 25 28 30 29 28 28 28 27 29 31 30 30 29 27 26 24 23 32 24 22 20 21 22 22 19 20 22 22 26 25 25 31 32 24 24 26 38 53 60 83 96 94 92 96
22 24 24 27 29 29 31 30 30 31 32 32 33 31 29 27 25 22 21 33 30 24 22 22 23 24 24 20 23 25 27 30 29 28 26 30 26 24 34 42 56 65 88 93 95 83 84
21 23 26 30 31 31 30 26 28 32 33 33 32 32 28 26 21 20 23 28 24 23 22 24 25 24 26 24 27 28 30 29 31 29 26 25 36 29 32 42 44 60 67 77 85 96 96
24 30 33 33 33 30 28 24 29 33 33 33 31 29 26 22 20 19 31 26 25 23 22 24 25 26 26 26 28 31 31 30 29 28 26 27 36 30 37 52 56 53 58 62 75 79 97
27 33 33 33 31 29 26 26 33 33 32 31 28 29 24 21 21 23 28 24 23 23 22 24 24 25 26 26 28 31 31 28 29 28 27 27 35 42 41 54 55 56 58 60 65 68 76
27 32 32 34 32 29 27 31 35 32 31 31 27 25 24 21 28 29 23 24 24 25 24 24 27 26 26 27 28 29 31 27 30 27 28 26 37 51 46 47 57 60 50 55 59 66 77
26 32 31 33 33 29 29 34 35 32 30 28 26 33 24 22 23 24 25 26 26 26 25 26 27 26 25 28 28 30 31 31 33 29 27 28 39 55 75 80 74 80 66 55 60 66 73
25 29 30 32 35 32 32 36 36 32 29 27 26 28 28 32 28 25 24 26 26 27 26 25 28 28 28 32 30 31 29 32 33 31 29 30 38 59 66 78 80 86 71 64 65 69 75
23 26 28 30 36 36 35 38 37 32 28 26 28 27 27 28 26 25 27 28 28 26 26 28 29 31 29 31 30 31 33 37 37 33 37 37 37 55 69 82 97 83 75 68 67 73 74
24 25 25 29 37 39 38 39 38 32 28 28 29 27 26 28 27 28 28 29 29 28 28 28 30 33 33 32 30 31 33 35 38 41 45 41 42 47 53 82 89 78 72 76 71 69 69
28 27 26 31 38 41 40 40 39 33 28 29 29 28 26 32 28 28 29 31 31 30 29 30 32 34 33 33 29 31 33 35 37 39 42 35 40 47 58 73 86 62 65 76 76 66 69
34 32 29 33 40 43 42 41 40 35 30 28 29 30 29 35 32 31 31 33 32 31 32 32 35 36 35 33 34 36 37 32 31 31 29 33 38 48 65 65 59 59 72 79 75 70 66
39 38 33 36 43 46 43 42 40 36 33 30 29 31 31 31 36 34 33 35 35 33 34 34 37 35 37 36 41 47 48 36 38 35 30 31 35 46 56 68 74 59 52 58 67 76 62
43 40 37 39 47 49 45 43 42 40 36 35 32 32 33 34 36 35 36 37 35 35 38 37 34 37 35 42 50 51 46 39 45 40 36 32 33 41 52 64 55 51 59 67 80 73 65
46 44 40 43 49 51 46 44 44 43 40 38 37 35 34 36 37 37 37 37 37 37 38 37 39 39 39 47 51 52 51 46 46 38 35 39 48 54 54 60 59 58 69 78 72 68 66
47 45 43 47 51 51 49 47 46 45 43 39 41 40 37 38 39 40 39 40 43 43 35 37 38 41 42 48 50 48 50 49 46 47 39 42 38 52 57 52 53 59 63 64 65 63 65

GFSGBSN_prec_cthk_342.txt.gz
RH
13 12 12 13 13 15 15 15 15 15 16 15 14 13 12 12 11 9 7 6 6 6 7 7 8 7 7 7 8 9 8 7 7 8 8 9 10 11 12 11 10 10 12 13 13 13 12
19 18 18 17 16 16 15 15 15 15 14 13 12 10 8 6 6 6 6 6 7 7 8 9 10 9 9 10 11 10 10 10 10 10 11 11 12 13 13 14 12 12 13 12 12 12 12
16 17 16 16 14 13 13 14 14 13 12 10 8 5 5 5 6 6 7 8 8 9 11 12 13 14 13 15 15 14 13 13 13 12 11 11 12 11 12 14 15 16 15 14 14 15 15
14 14 14 13 12 11 10 11 10 9 7 6 5 5 5 6 7 8 10 11 12 13 13 15 15 15 17 17 16 14 13 12 10 9 9 10 11 10 10 10 12 13 14 15 15 16 17
14 13 12 12 10 9 8 8 7 6 6 5 6 6 7 8 10 12 13 14 15 15 16 17 18 18 19 18 15 12 10 8 7 8 8 10 9 10 10 11 13 15 17 16 16 17 19
15 13 12 11 10 9 8 7 7 7 7 7 8 8 10 10 12 16 16 17 18 18 19 19 20 19 19 17 12 10 8 7 7 7 7 8 10 12 12 13 24 22 20 19 19 20 21
15 13 12 12 10 9 8 8 8 9 10 10 11 11 13 15 15 18 20 20 21 21 22 23 22 21 15 12 12 10 9 8 8 8 10 10 12 16 16 15 14 15 16 16 15 19 26
16 13 13 13 13 12 11 10 10 11 12 12 14 16 18 19 20 20 22 25 24 23 22 23 21 16 13 13 13 11 10 10 10 11 10 13 16 15 15 14 13 14 15 13 16 20 25
19 16 14 14 15 15 14 13 14 14 15 16 17 18 20 22 22 24 23 24 25 25 22 22 16 14 14 14 15 12 11 12 13 14 13 15 17 17 15 16 17 19 20 21 29 25 25
22 20 18 17 17 18 18 17 16 17 18 19 20 21 23 24 25 26 24 25 26 28 24 19 16 16 15 15 15 14 13 14 14 16 14 17 17 17 16 18 20 23 20 25 32 54 67
24 23 22 21 20 20 20 20 19 19 20 22 24 25 27 28 27 25 24 24 28 36 32 18 18 17 17 14 15 16 14 14 17 17 14 21 19 18 17 20 27 34 31 34 42 65 83
21 23 24 25 24 23 23 22 22 22 23 24 27 28 28 28 29 26 23 23 26 26 25 21 17 18 17 16 18 18 16 15 16 18 17 20 19 16 20 16 27 36 48 42 55 80 86
24 25 25 25 26 28 28 27 27 27 27 28 30 29 28 28 26 26 24 27 24 34 20 19 19 20 18 18 20 20 21 19 22 21 26 21 21 18 21 22 20 34 59 63 59 93 94
22 24 25 27 29 28 29 29 29 29 29 30 31 29 28 25 23 22 23 20 28 23 20 18 20 21 21 20 23 23 23 27 23 22 30 27 18 23 25 35 44 46 63 91 96 95 97
20 24 28 31 31 30 28 25 24 29 30 30 31 31 26 22 20 19 17 30 27 21 19 20 21 22 23 20 24 25 26 29 26 25 24 27 25 21 28 32 46 47 51 59 90 92 82
24 32 32 32 31 29 25 23 27 30 31 30 29 28 23 21 17 16 19 25 21 20 21 21 23 23 25 25 27 26 29 26 26 25 24 25 32 23 25 32 38 46 48 61 75 94 96
27 32 31 31 30 27 24 25 31 30 30 29 27 24 21 19 16 15 26 21 21 20 20 21 23 25 25 27 29 29 30 26 26 25 25 26 30 26 35 49 55 48 53 63 70 68 92
26 31 30 31 31 27 27 31 31 30 28 27 23 23 19 16 17 19 23 20 20 20 21 22 23 24 25 27 29 29 29 26 28 27 27 25 32 39 37 50 54 62 65 65 70 60 69
24 31 30 30 32 29 29 33 32 29 27 24 21 20 18 15 22 24 20 21 21 21 22 23 25 25 24 27 29 29 30 26 30 28 28 25 33 48 43 45 57 65 65 65 67 67 73
21 26 29 29 32 33 32 34 32 28 26 23 21 26 19 17 18 20 21 22 23 23 23 24 24 24 26 30 30 30 30 29 31 28 27 24 33 47 62 60 67 73 73 68 71 75 74
21 23 25 28 32 36 35 36 33 28 25 23 22 25 23 25 23 21 21 22 23 25 24 24 26 27 29 33 32 31 29 31 32 30 28 28 30 42 51 59 63 72 79 71 74 73 73
24 23 22 27 33 37 36 38 34 29 25 23 23 23 23 24 22 22 24 25 24 26 25 27 28 31 31 33 33 33 32 35 34 33 35 36 37 39 45 57 68 79 77 76 77 80 74
28 25 25 28 34 38 38 39 36 30 24 23 23 23 22 25 24 24 25 26 27 27 28 28 30 32 34 34 35 33 34 34 36 37 38 40 34 35 42 59 76 81 63 71 74 74 70
30 27 29 29 34 39 40 40 38 31 26 26 25 24 23 29 26 26 27 28 29 30 30 30 31 34 34 36 34 35 35 37 38 37 38 39 32 36 46 55 68 45 47 53 61 61 66
34 31 33 30 35 40 41 41 40 35 28 26 27 26 26 32 30 29 29 31 32 32 33 32 33 35 35 35 38 39 40 34 31 32 36 33 32 39 51 53 42 40 46 55 63 57 58
37 36 36 32 37 42 42 42 41 39 32 29 28 29 28 29 33 32 33 34 36 34 35 35 37 36 36 37 43 51 51 38 40 35 30 32 31 36 47 56 59 40 43 48 58 64 57
39 40 39 35 40 46 44 42 42 42 36 34 31 31 31 31 33 34 34 36 34 37 39 37 36 36 36 41 52 54 51 41 48 46 38 36 32 36 46 56 44 38 42 53 75 60 58
45 44 41 39 44 48 46 44 43 44 42 37 35 35 34 34 35 35 36 36 38 39 41 37 37 38 39 46 52 55 55 48 50 42 38 39 43 46 44 50 45 35 47 54 51 50 55
48 44 43 43 46 48 48 47 46 45 45 40 37 39 38 37 38 38 39 38 41 45 42 38 36 37 39 47 53 54 55 51 49 51 39 46 35 38 37 34 26 33 32 34 41 42 45

GFSGBSN_prec_cthk_348.txt.gz
RH
17 16 15 15 14 14 14 13 14 13 12 11 9 8 6 6 6 6 7 8 8 7 8 8 9 9 11 12 14 14 12 13 12 12 11 11 11 11 11 11 13 14 14 13 15 16 18
15 14 13 12 11 12 13 13 12 11 9 6 5 5 6 6 7 8 8 9 10 11 12 12 12 14 14 14 15 14 13 12 10 8 7 6 8 9 10 10 13 13 13 13 13 14 16
12 12 11 10 9 10 10 10 8 7 5 5 5 6 6 8 9 10 12 13 14 15 15 15 16 17 16 17 15 12 9 7 7 7 7 7 6 6 9 11 10 13 14 14 15 15 17
12 11 10 8 8 8 7 7 6 6 6 6 7 8 9 11 12 13 14 15 16 18 18 18 17 18 17 14 10 8 8 8 8 7 7 7 6 6 7 9 10 9 12 11 10 14 14
12 11 10 9 7 7 7 7 7 7 8 8 9 10 12 14 15 16 17 18 19 19 19 18 18 16 13 11 9 7 7 7 7 7 6 6 6 7 7 7 8 8 9 9 9 9 12
12 12 12 10 8 8 8 9 9 10 10 11 13 14 16 18 18 19 20 20 21 20 19 17 14 13 12 10 8 8 6 7 6 7 7 7 8 9 9 8 8 9 10 10 10 10 13
12 13 13 12 11 10 10 11 12 12 12 14 16 18 18 21 20 21 21 21 20 19 18 14 13 12 12 10 8 7 7 7 7 8 9 9 9 10 10 11 11 11 11 10 13 13 17
15 14 14 15 15 14 13 14 15 16 16 17 18 20 21 21 21 21 20 20 18 18 16 14 13 11 11 10 9 9 9 9 10 9 9 9 12 11 12 14 14 15 19 19 22 24 24
19 17 17 16 17 18 17 16 17 18 19 20 21 23 24 23 21 20 18 17 16 16 14 13 13 11 11 12 11 12 11 12 11 11 12 13 14 13 13 16 15 16 16 18 23 29 34
22 22 21 20 20 20 19 19 18 19 21 22 23 24 25 23 20 19 17 15 15 14 14 14 13 13 13 13 14 13 13 14 12 12 15 14 14 13 13 15 16 15 14 17 31 37 53
22 23 24 25 25 25 24 23 21 21 23 24 25 25 24 21 18 17 15 14 18 19 18 14 16 15 14 14 16 15 14 14 14 13 12 15 15 16 14 18 18 17 17 24 40 57 58
21 23 25 25 24 24 24 25 26 25 25 26 26 25 23 20 17 15 14 16 17 17 21 16 17 17 16 17 18 18 16 14 15 16 17 17 17 16 17 18 20 22 20 31 59 60 68
21 26 27 27 27 26 24 23 22 24 26 26 26 24 19 17 17 14 14 15 18 40 15 15 17 17 17 21 21 21 18 17 15 16 16 16 16 16 18 21 19 29 34 38 40 71 70
29 28 27 27 25 23 22 22 23 26 26 26 25 22 17 15 16 14 15 13 41 16 15 16 17 19 18 21 23 21 21 20 18 17 21 17 14 17 19 24 27 32 41 58 68 69 72
28 28 28 27 25 23 23 26 27 27 26 25 24 19 16 13 13 14 12 29 17 15 15 18 18 18 19 21 24 25 22 22 21 19 18 19 20 18 20 25 29 40 40 55 70 69 69
25 28 27 27 26 24 27 29 27 26 25 24 22 18 15 12 11 11 13 17 16 15 17 17 17 19 20 22 25 25 23 23 23 22 22 20 19 21 26 31 34 36 50 52 60 65 61
19 27 27 26 29 28 30 30 27 26 24 21 19 18 13 11 10 12 22 17 16 17 17 19 20 20 22 24 27 27 27 24 23 24 23 23 22 20 25 33 36 41 50 54 65 65 66
13 18 25 26 29 31 32 31 27 25 23 19 17 18 13 12 14 14 17 15 16 17 19 20 21 22 23 26 27 28 27 25 25 26 27 24 22 24 22 31 35 45 48 54 59 55 57
12 15 21 25 30 31 34 32 28 25 22 17 17 16 12 11 22 21 16 17 18 18 20 21 22 23 24 27 29 30 30 26 28 29 26 24 25 25 24 43 43 44 50 46 50 65 79
21 22 20 23 30 33 34 33 29 25 22 18 18 23 14 14 16 15 16 18 19 20 21 22 23 24 27 29 30 32 31 30 28 31 29 29 29 32 32 29 28 39 45 47 53 61 56
24 24 22 23 29 34 34 34 30 26 23 18 19 20 17 23 19 17 17 18 20 22 23 24 26 25 26 28 30 33 33 30 33 34 33 32 31 29 31 28 24 30 40 44 52 52 55
28 25 24 23 29 35 34 36 32 28 24 19 21 19 17 19 18 18 19 19 21 24 24 25 27 28 28 31 32 34 35 32 31 35 35 36 34 28 27 26 29 30 37 37 45 48 52
31 29 26 25 29 36 35 36 35 30 25 19 19 17 19 19 21 20 21 21 22 25 27 27 28 29 31 33 34 37 39 36 35 36 37 39 34 31 28 32 38 39 21 23 34 45 46
34 32 30 27 30 37 36 37 37 33 28 21 20 19 21 24 20 22 23 24 25 28 29 29 30 30 32 33 35 37 41 39 36 39 40 40 39 32 30 31 41 22 17 22 28 31 41
40 36 32 29 31 38 38 38 39 36 31 24 21 21 23 25 23 25 26 27 29 31 32 31 32 32 33 34 35 35 40 39 36 35 40 40 38 35 41 34 24 19 20 26 31 33 36
44 41 35 31 32 39 39 40 40 38 35 30 25 23 23 28 27 26 28 29 30 32 35 35 35 33 33 33 36 46 42 39 39 37 38 43 42 40 40 43 35 21 18 20 26 43 27
46 43 36 33 34 40 40 40 41 40 37 34 32 28 27 28 30 30 32 32 33 35 36 38 39 36 34 34 48 43 40 42 43 39 39 41 43 45 42 49 33 22 20 23 37 24 24
47 41 37 36 37 40 41 40 40 39 39 38 36 36 34 31 35 32 32 34 35 36 39 40 38 36 34 39 41 44 43 43 47 41 38 41 49 51 40 44 45 21 24 25 19 19 24
47 45 41 42 40 42 42 41 40 41 39 40 40 38 38 35 38 35 35 36 38 40 42 43 43 36 38 41 41 43 49 49 47 44 43 44 44 49 43 34 30 23 21 21 20 20 22